Wind_Speed
4 5 6 4 6 7 6 7 4 3 2 2 5 6 6 4 3 3 6 10 12 16 16 16 18 14 13 11 11 8 3 13 18 15 12 11 8 6 5 6 6 4 4 3 8 11 6 7 6
3 5 5 3 6 6 0 1 7 4 2 2 3 5 7 8 4 2 5 7 10 15 16 18 18 14 12 10 11 7 6 13 20 17 14 12 9 5 4 5 6 4 2 7 9 8 9 6 4
6 3 3 3 4 6 4 4 2 4 2 3 5 6 8 8 3 4 6 8 12 14 17 19 17 14 12 10 12 8 9 13 20 16 13 12 7 3 5 4 3 2 5 9 8 10 7 6 5
6 3 1 4 6 9 7 5 4 4 3 2 5 8 10 9 8 7 11 12 11 16 13 19 17 15 12 12 11 9 8 16 19 16 15 14 8 7 6 5 3 3 8 10 9 7 7 10 15
10 8 3 8 10 12 9 7 4 3 4 4 5 6 11 12 9 8 11 12 11 10 12 18 17 15 13 12 13 10 10 18 19 18 16 14 11 10 10 7 3 7 11 10 9 10 13 17 18
11 9 10 13 15 12 10 7 5 3 5 5 5 5 7 11 10 8 9 11 11 9 9 16 19 17 17 13 13 13 14 20 16 14 13 13 11 9 11 6 6 12 13 10 12 15 18 20 15
11 7 9 17 15 11 11 9 8 5 6 3 5 3 4 10 11 8 9 9 9 6 5 13 17 14 9 8 13 14 17 14 12 11 11 11 12 13 10 8 13 15 13 15 15 20 21 16 12
9 11 11 9 12 11 18 13 9 5 6 3 6 2 4 12 12 10 8 7 8 6 7 14 16 11 10 8 12 19 17 16 14 11 9 15 18 12 10 15 15 14 16 18 20 21 18 13 13
8 7 4 3 7 14 23 18 11 7 8 3 7 6 7 11 12 9 5 7 6 6 5 7 12 14 11 12 10 13 14 13 13 10 7 13 15 13 16 17 15 17 19 22 22 20 16 15 14
6 5 4 7 5 14 20 20 14 7 6 4 7 7 10 10 11 10 7 7 6 7 6 6 10 7 9 8 6 11 10 10 10 9 7 8 10 16 19 17 17 19 23 24 22 18 16 15 14
5 4 5 2 3 5 13 20 14 9 6 6 6 8 11 11 9 7 5 7 6 5 6 8 9 9 10 11 10 11 9 9 8 8 7 7 12 18 17 18 19 23 25 24 20 18 16 15 15
4 4 6 5 3 13 17 23 12 11 9 8 8 8 11 11 9 7 8 4 2 9 8 7 8 8 9 10 11 9 10 10 8 8 9 12 16 17 17 17 21 24 25 22 20 18 15 14 12
1 5 7 7 9 15 13 15 13 13 10 9 10 9 10 11 8 8 5 1 3 12 11 9 10 11 10 9 9 9 9 11 11 13 14 16 16 17 14 16 23 25 25 22 19 15 15 12 16
3 4 5 8 10 11 9 11 14 14 11 10 11 10 11 11 9 7 5 4 2 16 13 10 9 10 11 12 10 9 9 10 12 13 13 14 15 15 16 21 25 27 23 21 18 15 12 13 14
4 5 3 4 7 8 5 6 10 15 11 12 12 9 10 10 9 7 5 5 8 12 11 9 8 9 13 13 11 11 11 12 13 13 13 13 15 15 19 23 25 23 21 19 16 13 12 10 11
6 5 4 4 7 8 7 2 6 18 18 15 13 10 9 10 10 5 6 6 8 11 10 8 8 10 15 11 9 11 11 13 15 16 15 15 15 16 19 23 24 21 18 16 14 11 10 8 11
7 6 8 5 5 5 5 4 2 11 14 17 14 13 11 10 10 7 4 5 9 11 11 8 9 10 9 9 9 11 11 12 15 17 15 15 15 16 19 21 22 19 16 14 13 11 7 7 9
12 13 10 6 4 3 3 6 6 7 13 15 12 13 12 12 10 9 6 6 10 11 8 14 10 11 10 8 8 9 11 15 18 19 15 16 15 16 17 19 21 17 14 12 11 8 6 4 9
14 16 12 11 8 7 5 5 9 8 10 11 13 13 13 11 11 10 10 10 12 13 12 11 9 11 7 6 7 8 14 17 19 19 16 17 16 16 16 16 18 16 13 10 9 6 6 7 10
12 12 14 13 11 10 10 7 4 5 13 15 18 13 11 10 10 12 13 13 14 14 13 12 11 10 8 8 7 10 16 17 18 19 19 17 16 16 17 16 16 16 14 11 9 8 4 6 8
7 8 10 12 12 10 9 7 6 6 8 17 18 19 9 13 13 12 12 13 13 14 13 12 12 10 9 8 9 9 9 16 15 20 21 18 16 16 17 16 15 15 14 12 9 6 3 3 3
7 11 8 8 6 7 9 2 8 7 7 15 19 20 18 17 15 12 12 14 14 15 14 14 12 10 9 9 10 10 12 15 14 17 23 20 16 17 17 18 17 14 13 11 9 8 5 2 1
12 12 12 10 9 9 12 2 14 8 8 9 9 21 17 20 18 17 15 15 14 16 15 15 13 11 11 10 10 10 10 16 19 17 20 21 17 17 17 20 20 18 15 13 12 10 8 7 3
6 7 8 11 7 2 19 12 15 11 10 8 8 5 15 18 17 15 13 13 15 15 17 18 16 13 11 12 11 11 12 14 16 19 21 20 18 18 18 20 21 20 19 16 15 12 11 7 4
5 4 3 3 6 6 17 6 16 12 13 13 11 8 13 17 18 14 14 14 16 18 18 19 18 16 13 12 13 13 14 15 17 20 21 20 21 20 19 18 19 19 19 19 17 15 13 10 7
5 10 9 9 9 8 11 4 13 12 9 9 8 9 11 9 19 20 16 16 18 19 18 17 19 19 17 15 14 14 15 18 17 19 22 20 19 22 21 21 20 18 18 20 19 17 15 11 10
11 5 13 9 11 6 10 10 11 13 11 4 4 7 8 10 11 21 22 20 18 19 19 18 18 19 19 18 15 16 17 18 18 20 21 22 22 21 21 22 23 19 19 20 18 16 15 12 10
6 9 5 5 7 3 9 8 7 10 11 9 4 5 6 10 11 13 26 24 20 20 23 23 22 20 21 19 18 15 16 19 20 19 19 21 21 22 24 22 20 20 18 16 18 17 17 15 13
7 3 5 12 12 7 4 7 10 11 11 10 10 9 8 8 8 12 14 26 29 25 24 23 24 23 22 21 21 19 18 18 21 21 18 17 17 20 21 20 20 19 18 19 20 20 19 18 18
15 12 10 4 11 8 14 9 9 8 12 12 13 13 13 13 11 13 15 17 18 18 23 28 28 25 25 24 22 23 20 19 20 21 19 17 18 18 17 16 16 16 15 15 17 17 16 17 18
Wind_Direction
93 115 110 93 90 84 68 50 20 343 59 158 103 108 102 105 166 200 201 201 197 193 188 186 188 185 190 191 201 216 274 193 186 195 187 189 188 157 150 156 139 113 65 326 323 335 26 81 85
90 110 116 82 106 76 130 178 23 15 35 96 101 110 109 102 115 157 216 225 203 188 183 182 185 183 181 178 192 187 242 194 194 192 191 193 183 170 163 168 105 107 16 359 355 44 91 94 82
81 41 114 134 125 146 213 170 16 11 17 94 110 117 115 125 126 102 168 177 188 177 184 184 186 185 182 175 190 178 219 207 196 189 192 197 186 189 117 130 123 69 32 31 49 78 87 98 73
341 357 308 200 174 185 183 147 56 23 6 90 128 120 113 104 96 115 110 123 154 184 170 185 184 183 183 182 188 185 185 194 188 190 193 203 193 187 146 148 172 56 50 70 81 95 92 79 82
340 317 237 204 196 190 158 123 77 40 43 106 131 141 122 104 101 104 103 101 121 161 183 180 181 184 183 182 191 193 164 187 179 180 199 204 212 217 160 168 107 59 89 102 96 94 83 80 82
357 339 177 187 195 192 159 135 109 83 79 119 131 154 136 122 113 111 111 105 113 126 165 183 184 179 196 187 192 190 195 180 185 182 196 210 219 200 134 146 96 99 97 97 89 87 88 88 86
25 27 162 190 188 180 166 137 127 88 110 134 118 153 154 137 121 121 119 114 108 110 112 173 184 199 197 214 197 183 195 193 171 191 209 206 216 140 144 115 105 101 96 85 87 96 95 95 94
52 59 117 153 188 192 172 125 120 120 126 153 131 131 154 128 126 128 116 132 126 117 95 120 158 177 144 123 142 141 141 156 164 162 152 158 137 127 119 106 103 100 93 93 99 105 104 103 80
68 57 77 227 207 212 187 182 141 147 113 162 146 144 159 136 124 131 146 151 144 135 126 107 131 129 128 136 132 133 146 162 130 144 134 106 117 123 112 108 105 98 97 105 113 111 109 90 77
15 39 17 327 270 240 214 202 144 136 103 170 150 152 151 129 128 131 135 148 165 160 151 136 128 137 125 114 109 111 112 122 144 157 160 134 113 103 109 107 103 102 109 119 119 113 99 85 68
36 29 356 6 78 135 169 177 158 139 139 164 140 146 138 119 117 125 150 149 170 190 172 159 153 151 143 137 124 114 111 115 136 150 150 127 107 111 109 113 115 115 122 123 117 108 94 79 63
42 38 344 344 204 151 138 143 143 148 151 155 142 138 133 117 116 103 132 165 214 193 184 167 154 159 147 138 130 122 121 115 111 126 128 116 115 116 117 119 120 126 127 125 117 102 93 77 57
116 50 18 29 113 169 160 140 155 148 143 147 134 138 132 112 113 112 117 49 256 184 172 175 165 160 155 144 134 129 125 122 119 123 124 117 114 115 115 123 129 131 129 126 114 106 92 75 52
179 90 40 84 107 125 124 157 152 158 152 141 136 140 131 122 120 119 129 50 69 165 161 172 172 163 161 155 152 157 144 136 135 129 123 118 117 121 123 133 135 135 135 126 120 110 94 79 54
174 124 80 82 127 152 149 175 171 170 163 149 135 147 132 124 124 137 147 101 119 154 160 173 175 164 151 148 153 157 160 151 144 140 132 126 128 123 126 132 137 135 129 129 124 109 91 82 65
179 170 176 211 145 154 140 211 188 158 163 153 150 144 138 133 126 147 158 136 139 154 147 180 178 151 146 136 143 167 160 155 148 144 135 130 128 125 131 137 132 126 133 134 122 108 104 83 67
170 159 177 179 172 164 175 194 231 165 177 154 159 158 150 142 139 137 179 155 133 161 185 180 166 169 167 157 149 168 165 164 161 156 144 135 138 137 136 139 137 141 143 139 129 119 101 74 57
193 191 180 183 182 171 234 234 205 208 211 181 170 171 160 149 147 140 178 170 141 145 148 166 162 160 160 158 163 170 179 175 166 159 149 145 143 138 146 148 152 153 158 148 139 120 70 96 74
195 197 203 222 238 243 236 222 219 216 211 203 191 185 175 170 163 163 171 188 150 156 158 164 162 168 161 158 161 178 177 170 169 166 154 148 147 148 156 157 163 166 168 159 148 133 98 80 64
209 212 225 235 247 249 240 219 230 229 216 222 197 182 186 193 167 173 175 192 178 174 180 174 174 174 180 173 160 170 166 166 171 174 167 152 152 160 162 167 175 181 181 178 174 169 141 78 57
195 219 229 220 223 231 235 241 249 261 236 218 222 216 194 190 186 186 191 191 199 187 191 188 179 179 185 180 161 150 157 160 172 180 175 169 166 171 175 176 184 191 190 194 194 185 179 115 67
171 220 221 227 188 257 216 304 267 246 248 222 234 221 215 196 182 177 192 202 202 199 197 199 186 179 176 185 169 149 166 178 166 171 182 180 177 178 182 185 192 194 199 205 206 203 211 203 145
207 201 204 223 237 244 263 217 268 257 260 264 239 229 222 194 196 192 195 202 202 210 205 205 193 185 179 177 191 192 183 175 183 172 180 180 177 181 184 192 197 202 206 213 217 213 218 220 209
187 180 206 223 239 332 268 235 281 249 264 277 276 242 233 191 203 198 194 197 199 209 208 210 197 181 192 195 198 202 193 182 181 185 183 184 183 183 190 193 196 200 207 211 217 212 220 225 237
243 215 348 308 287 239 271 247 231 247 256 272 278 283 207 197 205 207 204 202 206 209 213 205 201 194 193 206 192 199 194 184 183 186 190 201 197 191 194 201 196 201 206 211 215 217 221 232 245
272 203 210 258 252 266 265 249 257 247 231 266 262 272 266 257 217 199 210 217 217 216 216 212 206 195 196 210 206 198 203 200 200 204 210 214 208 204 200 201 204 210 214 217 214 215 219 238 233
284 246 215 234 273 264 252 269 270 254 233 238 208 237 241 255 260 236 227 223 207 212 220 224 217 210 201 208 222 209 199 202 207 210 216 220 215 212 211 213 218 224 223 224 227 231 233 231 231
218 232 252 237 223 248 270 282 232 256 245 226 224 210 235 252 261 276 233 224 218 225 233 238 222 219 217 212 218 223 216 204 204 209 216 222 221 220 222 225 229 228 226 228 237 242 240 242 244
254 227 182 192 217 211 312 297 272 251 246 241 229 229 231 234 260 276 263 243 227 236 241 237 221 217 217 220 221 222 221 213 211 211 210 210 216 219 221 227 228 230 233 236 238 240 240 246 244
252 217 228 233 300 266 206 240 259 256 242 243 241 238 230 234 240 235 239 254 252 254 250 231 227 218 217 220 225 230 227 224 224 220 217 213 212 211 209 213 221 222 222 231 236 238 240 241 241
Height
5884 5885 5885 5886 5888 5886 5886 5888 5889 5887 5885 5884 5882 5881 5880 5880 5880 5882 5879 5880 5882 5884 5885 5886 5888 5889 5891 5893 5893 5894 5895 5897 5899 5901 5902 5904 5905 5905 5907 5906 5906 5907 5907 5907 5908 5907 5907 5906 5905
5883 5885 5886 5886 5887 5888 5889 5888 5888 5886 5885 5883 5882 5881 5880 5880 5880 5879 5879 5879 5881 5883 5885 5885 5887 5889 5890 5892 5893 5894 5895 5896 5898 5900 5902 5904 5905 5907 5906 5906 5906 5908 5908 5908 5909 5909 5908 5907 5907
5884 5885 5886 5887 5887 5888 5888 5887 5887 5886 5885 5884 5883 5882 5881 5880 5880 5880 5879 5879 5880 5882 5883 5885 5887 5889 5890 5892 5893 5894 5895 5896 5898 5901 5903 5905 5905 5906 5906 5907 5908 5909 5910 5910 5910 5911 5911 5909 5910
5883 5885 5885 5886 5885 5886 5887 5887 5887 5887 5886 5884 5883 5883 5881 5880 5880 5881 5879 5879 5880 5882 5883 5885 5887 5888 5890 5892 5893 5893 5894 5896 5899 5901 5903 5905 5905 5906 5907 5909 5910 5910 5910 5911 5914 5913 5913 5914 5914
5881 5881 5882 5883 5885 5885 5886 5886 5886 5886 5885 5885 5884 5883 5881 5880 5881 5882 5880 5880 5881 5883 5883 5885 5887 5889 5889 5891 5893 5893 5895 5896 5898 5901 5903 5903 5905 5907 5908 5909 5910 5910 5912 5914 5913 5915 5915 5916 5917
5881 5878 5879 5881 5883 5885 5886 5886 5886 5886 5885 5885 5885 5883 5882 5881 5881 5882 5882 5882 5882 5883 5884 5884 5885 5887 5888 5885 5891 5894 5895 5896 5896 5899 5900 5903 5905 5905 5907 5909 5911 5913 5914 5914 5916 5916 5918 5918 5918
5880 5876 5877 5879 5882 5885 5885 5885 5887 5886 5886 5886 5885 5884 5883 5882 5882 5883 5884 5884 5884 5884 5884 5883 5885 5885 5887 5886 5886 5892 5893 5895 5895 5898 5900 5902 5902 5905 5906 5910 5913 5913 5914 5915 5917 5919 5920 5920 5920
5881 5880 5879 5881 5882 5883 5884 5884 5885 5886 5885 5886 5885 5884 5884 5882 5882 5883 5885 5885 5885 5885 5886 5885 5887 5889 5888 5888 5888 5890 5891 5893 5896 5897 5897 5900 5903 5905 5909 5910 5912 5913 5915 5916 5919 5921 5921 5922 5922
5881 5881 5881 5882 5883 5882 5882 5883 5886 5886 5885 5887 5886 5885 5884 5883 5882 5884 5885 5886 5886 5887 5887 5888 5889 5889 5890 5891 5892 5892 5893 5895 5892 5895 5898 5900 5903 5906 5907 5911 5913 5914 5916 5919 5921 5922 5923 5924 5925
5881 5881 5880 5880 5878 5877 5879 5883 5885 5886 5886 5888 5887 5886 5885 5884 5883 5884 5886 5887 5888 5888 5889 5890 5891 5892 5893 5893 5893 5892 5894 5894 5896 5898 5900 5903 5905 5906 5908 5911 5913 5916 5918 5920 5922 5924 5925 5927 5926
5881 5881 5881 5879 5878 5874 5876 5882 5884 5885 5887 5888 5888 5886 5885 5883 5884 5885 5886 5887 5888 5889 5890 5892 5893 5894 5895 5895 5895 5895 5896 5897 5899 5900 5901 5904 5905 5907 5909 5912 5915 5917 5919 5922 5925 5927 5928 5929 5928
5883 5882 5881 5880 5878 5877 5879 5881 5885 5886 5888 5888 5888 5887 5885 5884 5885 5885 5886 5887 5889 5889 5890 5892 5893 5894 5895 5896 5897 5898 5899 5899 5900 5902 5903 5905 5908 5909 5912 5914 5916 5919 5922 5925 5927 5929 5930 5930 5929
5883 5883 5881 5879 5878 5880 5880 5883 5885 5887 5886 5887 5888 5887 5886 5886 5887 5887 5886 5886 5887 5889 5891 5892 5893 5895 5896 5897 5898 5900 5901 5902 5904 5906 5907 5909 5911 5913 5914 5917 5919 5922 5925 5927 5929 5931 5932 5932 5931
5884 5884 5882 5881 5880 5881 5880 5880 5884 5887 5887 5887 5888 5889 5887 5887 5888 5889 5888 5887 5885 5888 5891 5893 5894 5896 5897 5898 5900 5901 5903 5904 5906 5908 5910 5912 5914 5916 5917 5920 5922 5925 5926 5928 5931 5933 5934 5933 5932
5883 5884 5884 5883 5882 5882 5881 5882 5883 5885 5886 5887 5888 5889 5888 5888 5888 5889 5889 5889 5888 5890 5893 5894 5895 5896 5898 5899 5901 5902 5905 5906 5908 5910 5912 5915 5916 5918 5920 5922 5926 5927 5929 5931 5933 5935 5935 5934 5933
5883 5884 5884 5884 5883 5883 5883 5882 5883 5884 5886 5886 5887 5889 5889 5889 5888 5890 5890 5890 5891 5893 5894 5895 5897 5898 5899 5900 5900 5902 5904 5907 5909 5911 5913 5916 5918 5919 5922 5924 5927 5929 5931 5934 5935 5936 5936 5936 5935
5884 5884 5884 5884 5884 5883 5883 5882 5883 5883 5884 5885 5887 5889 5889 5889 5890 5891 5891 5891 5891 5893 5895 5897 5898 5899 5900 5900 5901 5902 5905 5908 5909 5912 5914 5917 5920 5922 5923 5926 5928 5930 5932 5934 5935 5937 5937 5936 5935
5883 5884 5884 5884 5884 5883 5883 5883 5883 5883 5884 5884 5887 5888 5890 5889 5890 5891 5892 5892 5892 5894 5895 5896 5898 5900 5901 5901 5902 5903 5905 5908 5910 5912 5915 5917 5920 5923 5925 5927 5929 5931 5933 5934 5936 5938 5938 5937 5936
5880 5882 5883 5883 5884 5885 5885 5884 5883 5882 5883 5885 5887 5888 5889 5890 5890 5891 5892 5893 5893 5895 5896 5898 5899 5901 5903 5903 5903 5902 5904 5907 5910 5913 5915 5917 5921 5923 5926 5928 5930 5932 5934 5936 5938 5938 5939 5938 5936
5879 5881 5881 5882 5882 5883 5883 5884 5883 5882 5883 5884 5885 5887 5889 5889 5889 5891 5892 5893 5893 5895 5897 5899 5900 5901 5903 5904 5904 5904 5905 5907 5910 5914 5916 5918 5921 5925 5927 5928 5931 5933 5935 5936 5938 5939 5939 5938 5938
5879 5879 5879 5880 5881 5882 5882 5884 5882 5882 5881 5882 5884 5883 5887 5888 5889 5891 5892 5893 5894 5895 5897 5899 5900 5901 5903 5904 5905 5906 5907 5908 5910 5913 5917 5919 5922 5925 5927 5929 5931 5933 5935 5936 5938 5939 5938 5939 5939
5881 5879 5879 5879 5883 5883 5882 5884 5881 5881 5880 5881 5882 5883 5885 5887 5888 5890 5892 5893 5894 5895 5896 5898 5900 5901 5903 5905 5906 5907 5909 5910 5911 5913 5916 5919 5921 5924 5927 5930 5932 5934 5935 5937 5938 5939 5939 5939 5940
5877 5877 5877 5878 5881 5882 5882 5885 5881 5880 5880 5879 5879 5880 5882 5885 5886 5888 5890 5892 5894 5895 5896 5898 5900 5902 5904 5906 5907 5908 5909 5910 5911 5913 5916 5919 5921 5923 5926 5929 5931 5934 5935 5937 5938 5939 5939 5940 5940
5875 5876 5877 5877 5879 5885 5879 5881 5882 5879 5879 5878 5877 5878 5879 5880 5884 5887 5889 5891 5893 5895 5895 5897 5899 5901 5903 5905 5906 5907 5909 5910 5911 5914 5916 5919 5920 5923 5925 5927 5930 5933 5935 5936 5938 5939 5940 5940 5940
5873 5877 5883 5884 5884 5886 5877 5879 5879 5877 5877 5876 5876 5877 5877 5878 5882 5886 5888 5889 5891 5893 5893 5895 5897 5899 5902 5904 5906 5907 5908 5911 5912 5914 5916 5918 5920 5922 5925 5927 5928 5930 5933 5935 5937 5938 5939 5940 5940
5872 5878 5883 5883 5884 5883 5876 5878 5876 5873 5875 5875 5875 5875 5876 5877 5880 5883 5885 5886 5888 5891 5893 5894 5895 5896 5899 5902 5905 5907 5908 5910 5911 5914 5916 5917 5919 5921 5923 5926 5927 5929 5932 5934 5935 5937 5938 5938 5939
5870 5871 5876 5877 5876 5876 5878 5874 5872 5871 5872 5873 5873 5874 5874 5876 5878 5879 5882 5884 5885 5888 5890 5891 5892 5894 5895 5899 5903 5904 5908 5909 5910 5912 5914 5916 5918 5920 5921 5923 5925 5927 5929 5931 5934 5935 5936 5937 5937
5867 5870 5872 5873 5877 5876 5876 5871 5873 5869 5869 5871 5872 5872 5873 5874 5875 5875 5877 5881 5883 5885 5887 5889 5890 5891 5892 5895 5899 5903 5905 5907 5909 5910 5912 5914 5917 5919 5921 5922 5924 5926 5928 5930 5932 5933 5934 5935 5935
5864 5866 5867 5870 5871 5875 5876 5875 5867 5866 5866 5867 5868 5869 5870 5871 5873 5873 5873 5876 5878 5881 5884 5885 5887 5889 5890 5892 5895 5898 5902 5905 5907 5908 5910 5912 5914 5917 5919 5921 5922 5924 5925 5927 5928 5929 5930 5932 5932
5861 5864 5867 5869 5871 5869 5868 5872 5866 5864 5863 5864 5865 5866 5867 5867 5869 5870 5871 5872 5874 5877 5878 5881 5884 5886 5887 5888 5892 5894 5898 5902 5905 5907 5909 5911 5913 5915 5916 5918 5920 5921 5922 5924 5924 5926 5927 5927 5928